This is the latest recevied weather packets stored in our database for station/object KG7MRB. If no packets are shown the sender has not sent any weather packets the latest 10 day(s).
| Time | Temp. | Humidity | Pressure | Rain* | Wind** | Luminosity | Snow |
|---|---|---|---|---|---|---|---|
| 1778189499 | 16.67° C | 71% | 1036.8 hPa | 0 mm | - | 351 W/m² | - |
| 1778189195 | 16.67° C | 68% | 1037 hPa | 0 mm | - | 354 W/m² | - |
| 1778188892 | 16.67° C | 67% | 1037 hPa | 0 mm | - | 374 W/m² | - |
| 1778188589 | 16.67° C | 70% | 1037.1 hPa | 0 mm | - | 363 W/m² | - |
| 1778188284 | 16.11° C | 72% | 1037.1 hPa | 0 mm | - | 315 W/m² | - |
| 1778187982 | 16.11° C | 73% | 1037 hPa | 0 mm | - | 287 W/m² | - |
| 1778187679 | 16.11° C | 73% | 1037.2 hPa | 0 mm | - | 249 W/m² | - |
| 1778187375 | 16.11° C | 71% | 1037.4 hPa | 0 mm | - | 220 W/m² | - |
| 1778187071 | 15.56° C | 73% | 1037.3 hPa | 0 mm | - | 216 W/m² | - |
| 1778186768 | 15.56° C | 74% | 1037.4 hPa | 0 mm | - | 234 W/m² | - |
| 1778186465 | 15.56° C | 74% | 1037.6 hPa | 0 mm | - | 248 W/m² | - |
| 1778186163 | 16.11° C | 73% | 1037.4 hPa | 0 mm | - | 268 W/m² | - |
| 1778185861 | 15.56° C | 74% | 1037.6 hPa | 0 mm | - | 228 W/m² | - |
| 1778185556 | 15.56° C | 73% | 1037.4 hPa | 0 mm | - | 226 W/m² | - |
| 1778185252 | 15.56° C | 74% | 1037.5 hPa | 0 mm | - | 237 W/m² | - |
| 1778184948 | 15.56° C | 76% | 1037.6 hPa | 0 mm | - | 274 W/m² | - |
| 1778184645 | 15.56° C | 73% | 1037.6 hPa | 0 mm | - | 243 W/m² | - |
| 1778184340 | 15.56° C | 74% | 1037.7 hPa | 0 mm | - | 252 W/m² | - |
| 1778184036 | 16.11° C | 72% | 1037.5 hPa | 0 mm | - | 304 W/m² | - |
| 1778183734 | 16.11° C | 71% | 1037.7 hPa | 0 mm | - | 356 W/m² | - |
| 1778183431 | 15.56° C | 73% | 1037.8 hPa | 0 mm | - | 389 W/m² | - |
| 1778183127 | 15.56° C | 75% | 1037.9 hPa | 0 mm | - | 394 W/m² | - |
| 1778182824 | 15° C | 74% | 1037.9 hPa | 0 mm | - | 385 W/m² | - |
| 1778182521 | 15.56° C | 75% | 1038.1 hPa | 0 mm | - | 399 W/m² | - |
| 1778182218 | 15° C | 77% | 1037.7 hPa | 0 mm | - | 377 W/m² | - |
* Rain latest hour (hover to see other rain measurements)
** Current wind speed in m/s (hover to see current wind gust speed)